Location: Roland
(31.1349°N, 85.4372°W)
Time: 00:21:07
(UTC+00:00)

Altair - Visible Passes

Search period start: 19 April 2021 00:00
Search period end: 29 April 2021 00:00
Orbit: 1501 x 1683 km, 47.2° (Epoch: 18 April)

Date Brightness Start Highest point End Pass type
(mag) Time Alt. Az. Time Alt. Az. Time Alt. Az.
19 Apr 8.6 09:13:12 15° S 09:20:43 37° SE 09:29:24 10° ENE visible
20 Apr 8.7 08:49:48 19° S 08:55:35 34° SE 09:04:02 10° ENE visible
21 Apr 8.7 08:26:20 23° SSE 08:30:28 30° SE 08:38:38 10° ENE visible
21 Apr 7.7 10:24:36 10° SW 10:34:41 81° NW 10:44:26 10° NE visible
22 Apr 8.8 08:02:48 24° SSE 08:05:21 27° SE 08:13:11 10° ENE visible
22 Apr 7.6 10:00:49 16° SW 10:09:28 86° NW 10:19:15 10° NE visible
23 Apr 8.8 07:39:10 24° SE 07:40:14 24° SE 07:47:40 10° ENE visible
23 Apr 7.6 09:37:12 23° SW 09:44:15 88° SE 09:54:04 10° NE visible
24 Apr 9.0 07:15:29 22° ESE 07:15:29 22° ESE 07:22:04 10° E visible
24 Apr 7.6 09:13:30 32° SW 09:19:02 82° SE 09:28:52 10° NE visible
25 Apr 9.2 06:51:44 18° ESE 06:51:44 18° ESE 06:56:23 10° E visible
25 Apr 7.6 08:49:45 42° SSW 08:53:50 76° SE 09:03:40 10° NE visible
26 Apr 9.4 06:27:55 15° ESE 06:27:55 15° ESE 06:30:34 10° E visible
26 Apr 7.6 08:25:56 52° SSW 08:28:39 70° SE 08:38:28 10° NE visible
26 Apr 8.2 10:24:27 10° W 10:33:58 46° NNW 10:43:12 10° NE visible
27 Apr 9.6 06:04:02 11° E 06:04:02 11° E 06:04:34 10° E visible
27 Apr 7.6 08:02:03 59° S 08:03:28 65° SE 08:13:14 10° NE visible
27 Apr 8.1 10:00:03 14° W 10:08:39 48° NNW 10:18:02 10° NE visible
28 Apr 7.7 07:38:07 59° SE 07:38:18 59° SE 07:48:00 10° ENE visible
28 Apr 8.0 09:36:07 20° W 09:43:21 51° NNW 09:52:51 10° NE visible
